1497463200.68,48471,19.56,73912.5,-0.33,-28.97,-31.01,0,*69
1497463201.94,48472,19.63,73914.5,-0.33,-28.91,-30.95,0,*60
1497463203.17,48473,19.56,73910.3,-0.33,-28.97,-31.11,0,*6A
1497463204.4,48474,19.56,73912.8,-0.33,-28.97,-30.95,0,*60
1497463205.63,48475,19.56,73912.5,-0.33,-28.97,-30.95,0,*61
1497463206.83,48476,19.56,73914.0,-0.33,-28.97,-31.01,0,*6E
1497463208.04,48477,19.63,73914.5,-0.33,-29.07,-31.17,0,*60
1497463209.3,48478,19.56,73914.8,-0.33,-28.91,-30.95,0,*6A
1497463210.51,48479,19.56,73914.8,-0.33,-28.85,-31.01,0,*62
1497463211.74,48480,19.56,73914.8,-0.31,-28.85,-31.05,0,*62
1497463212.95,48481,19.56,73912.5,-0.33,-28.85,-31.01,0,*65
1497463214.2,48482,19.63,73912.8,-0.35,-28.75,-31.01,0,*6F
1497463215.48,48483,19.56,73910.8,-0.35,-28.91,-31.11,0,*65
1497463216.74,48484,19.63,73914.3,-0.35,-28.85,-31.11,0,*67
1497463217.98,48485,19.56,73912.0,-0.33,-28.91,-31.17,0,*63
1497463219.24,48486,19.56,73914.5,-0.35,-28.91,-31.17,0,*66
1497463220.44,48487,19.56,73914.8,-0.37,-28.97,-31.29,0,*6E
1497463221.67,48488,19.56,73908.0,-0.35,-28.85,-31.17,0,*6D
1497463222.93,48489,19.56,73910.5,-0.33,-28.75,-31.11,0,*63
1497463224.14,48490,19.56,73912.3,-0.33,-28.85,-31.17,0,*62
1497463225.37,48491,19.56,73910.0,-0.35,-28.85,-31.17,0,*65
1497463226.63,48492,19.63,73918.3,-0.37,-28.79,-31.23,0,*60
1497463227.84,48493,19.63,73916.0,-0.33,-28.69,-31.17,0,*63
1497463229.07,48494,19.63,73914.3,-0.37,-28.75,-31.17,0,*6D
1497463230.3,48495,19.56,73914.8,-0.35,-28.69,-31.17,0,*63
1497463231.58,48496,19.56,73914.8,-0.35,-28.59,-31.11,0,*65
1497463232.84,48497,19.56,73914.5,-0.35,-28.69,-31.23,0,*66
1497463234.09,48498,19.56,73908.8,-0.35,-28.53,-30.95,0,*6C
1497463235.35,48499,19.56,73912.0,-0.35,-28.21,-31.01,0,*64
1497463236.6,48500,19.56,73912.5,-0.35,-28.75,-31.33,0,*65
1497463237.85,48501,19.63,73918.0,-0.35,-28.69,-31.39,0,*63
1497463239.1,48502,19.56,73910.8,-0.37,-28.75,-31.39,0,*6F
1497463240.36,48503,19.56,73910.0,-0.35,-28.53,-31.23,0,*63
1497463241.62,48504,19.56,73910.8,-0.35,-28.53,-31.23,0,*64
1497463242.85,48505,19.56,73906.5,-0.37,-28.59,-31.33,0,*6C
1497463244.13,48506,19.56,73906.0,-0.35,-28.59,-31.39,0,*67
1497463245.38,48507,19.56,73904.3,-0.37,-28.79,-31.57,0,*6E
1497463246.61,48508,19.63,73904.8,-0.35,-28.53,-31.33,0,*69
1497463247.83,48509,19.56,73910.8,-0.35,-28.53,-31.33,0,*68
1497463249.08,48510,19.56,73912.5,-0.35,-28.43,-31.33,0,*61
1497463250.36,48511,19.56,73910.3,-0.35,-28.43,-31.23,0,*61
1497463251.59,48512,19.56,73906.8,-0.37,-28.47,-31.45,0,*64
1497463252.82,48513,19.56,73908.3,-0.37,-28.59,-31.45,0,*6A
1497463254.08,48514,19.56,73908.0,-0.35,-28.53,-31.39,0,*6E
1497463255.33,48515,19.56,73908.5,-0.35,-28.43,-31.33,0,*64
1497463256.59,48516,19.56,73904.0,-0.35,-28.53,-31.51,0,*62
1497463257.84,48517,19.56,73904.8,-0.35,-28.53,-31.51,0,*63
1497463259.1,48518,19.56,73908.0,-0.35,-28.53,-31.51,0,*6C
1497463260.35,48519,19.56,73908.0,-0.35,-28.53,-31.57,0,*6B
1497463261.63,48520,19.56,73908.8,-0.35,-28.59,-31.85,0,*64
1497463262.84,48521,19.56,73906.8,-0.33,-28.53,-31.67,0,*65
1497463264.09,48522,19.56,73908.5,-0.35,-28.37,-31.51,0,*67
1497463265.34,48523,19.56,73914.5,-0.37,-28.59,-31.73,0,*6C
1497463266.6,48524,19.56,73912.0,-0.35,-28.37,-31.51,0,*61
1497463267.84,48525,19.56,73910.0,-0.35,-28.43,-31.67,0,*66
1497463269.09,48526,19.56,73914.8,-0.37,-28.47,-31.61,0,*65
1497463270.36,48527,19.56,73914.0,-0.35,-28.43,-31.57,0,*67
1497463271.61,48528,19.56,73910.3,-0.37,-28.43,-31.73,0,*6C
1497463272.85,48529,19.56,73912.3,-0.37,-28.43,-31.73,0,*6D
1497463274.1,48530,19.56,73914.0,-0.37,-28.43,-31.73,0,*65
1497463275.35,48531,19.56,73912.8,-0.35,-28.37,-31.73,0,*65
1497463276.57,48532,19.56,73912.5,-0.37,-28.31,-31.73,0,*62
1497463277.81,48533,19.56,73908.0,-0.37,-28.47,-31.91,0,*6E
1497463279.09,48534,19.56,73914.5,-0.35,-28.43,-31.85,0,*6A
1497463280.31,48535,19.56,73912.5,-0.37,-28.31,-31.61,0,*66
1497463281.56,48536,19.56,73912.3,-0.37,-28.43,-31.91,0,*6F
1497463282.81,48537,19.56,73910.0,-0.37,-28.47,-32.07,0,*66
1497463284.04,48538,19.56,73908.3,-0.37,-28.59,-32.13,0,*63
1497463285.29,48539,19.56,73910.5,-0.37,-28.47,-32.07,0,*68
1497463286.52,48540,19.56,73910.5,-0.35,-28.53,-32.01,0,*67
1497463287.74,48541,19.56,73910.5,-0.37,-28.59,-32.23,0,*6E
1497463288.97,48542,19.63,73914.5,-0.37,-28.59,-32.23,0,*6D
1497463290.2,48543,19.56,73904.0,-0.37,-28.59,-32.23,0,*6C
1497463291.42,48544,19.56,73910.3,-0.37,-28.59,-32.23,0,*6B
1497463292.64,48545,19.56,73910.5,-0.37,-28.43,-32.13,0,*62
1497463293.92,48546,19.56,73910.3,-0.35,-28.43,-32.19,0,*69
1497463295.17,48547,19.56,73904.8,-0.37,-28.59,-32.29,0,*62
1497463296.41,48548,19.56,73908.0,-0.37,-28.47,-32.29,0,*62
1497463297.63,48549,19.56,73910.5,-0.37,-28.47,-32.23,0,*69
1497463298.86,48550,19.56,73914.8,-0.37,-28.59,-32.23,0,*6E
1497463300.12,48551,19.56,73910.5,-0.37,-28.25,-31.95,0,*6A
1497463301.38,48552,19.56,73906.8,-0.37,-28.25,-31.95,0,*69
1497463302.6,48553,19.56,73908.5,-0.37,-28.47,-32.23,0,*62
1497463303.84,48554,19.56,73908.8,-0.39,-28.47,-32.23,0,*6B
1497463305.09,48555,19.56,73904.5,-0.39,-28.47,-32.35,0,*6D
1497463306.34,48556,19.56,73904.0,-0.39,-28.59,-32.35,0,*61
1497463307.59,48557,19.56,73904.3,-0.39,-28.59,-32.35,0,*60
1497463308.82,48558,19.56,73902.3,-0.39,-28.31,-32.13,0,*65
1497463310.06,48559,19.56,73906.8,-0.39,-28.47,-32.23,0,*66
1497463311.29,48560,19.56,73908.3,-0.43,-28.53,-32.35,0,*63
1497463312.54,48561,19.56,73904.5,-0.39,-28.59,-32.35,0,*65
1497463313.79,48562,19.56,73906.3,-0.39,-28.59,-32.35,0,*66
1497463315.02,48563,19.56,73902.0,-0.43,-28.69,-32.51,0,*6B
1497463316.3,48564,19.56,73900.0,-0.39,-28.63,-32.45,0,*6E
1497463317.58,48565,19.56,73906.5,-0.39,-28.59,-32.45,0,*66
1497463318.85,48566,19.56,73904.8,-0.39,-28.47,-32.29,0,*60
1497463320.12,48567,19.56,73906.3,-0.39,-28.47,-32.29,0,*61
1497463321.37,48568,19.56,73906.3,-0.39,-28.47,-32.39,0,*6F
1497463322.62,48569,19.56,73906.3,-0.39,-28.63,-32.35,0,*64
1497463323.87,48570,19.56,73902.5,-0.43,-28.63,-32.35,0,*61
1497463325.14,48571,19.56,73898.8,-0.39,-28.47,-32.29,0,*66
1497463326.42,48572,19.56,73896.3,-0.39,-28.63,-32.45,0,*69
1497463327.68,48573,19.56,73902.3,-0.39,-28.59,-32.51,0,*64
1497463328.93,48574,19.56,73906.3,-0.43,-28.63,-32.35,0,*65
1497463330.2,48575,19.56,73906.5,-0.39,-28.47,-32.29,0,*62
1497463331.45,48576,19.56,73902.3,-0.43,-28.53,-32.29,0,*69
1497463332.7,48577,19.56,73908.0,-0.39,-28.63,-32.35,0,*6B
1497463333.97,48578,19.56,73904.0,-0.39,-28.47,-32.29,0,*6F
1497463335.22,48579,19.56,73904.5,-0.43,-28.79,-32.39,0,*6F
1497463336.5,48580,19.56,73906.3,-0.39,-28.75,-32.45,0,*63
1497463337.77,48581,19.56,73908.3,-0.39,-28.75,-32.29,0,*68
1497463339.04,48582,19.56,73910.3,-0.39,-28.59,-32.29,0,*65
1497463340.32,48583,19.56,73904.0,-0.39,-28.63,-32.29,0,*6D
1497463341.57,48584,19.56,73906.3,-0.39,-28.63,-32.35,0,*67
1497463342.82,48585,19.56,73910.5,-0.39,-28.63,-32.35,0,*66
1497463344.1,48586,19.56,73908.8,-0.39,-28.63,-32.29,0,*68
1497463345.35,48587,19.56,73908.0,-0.43,-28.79,-32.35,0,*62
1497463346.57,48588,19.56,73910.8,-0.43,-28.69,-32.35,0,*6C
1497463347.8,48589,19.56,73908.0,-0.43,-28.85,-32.39,0,*63
1497463349.08,48590,19.56,73906.5,-0.39,-28.79,-32.29,0,*64
1497463350.31,48591,19.56,73904.0,-0.43,-28.85,-32.39,0,*6A
1497463351.57,48592,19.56,73912.5,-0.39,-28.91,-32.35,0,*6D
1497463352.79,48593,19.56,73908.0,-0.43,-28.97,-32.39,0,*6B
1497463354.02,48594,19.56,73910.3,-0.43,-28.97,-32.51,0,*62
1497463355.25,48595,19.56,73908.8,-0.43,-28.97,-32.51,0,*63
1497463356.51,48596,19.56,73908.0,-0.39,-29.01,-32.51,0,*63
1497463357.76,48597,19.56,73904.8,-0.39,-28.97,-32.45,0,*69
1497463358.98,48598,19.56,73910.5,-0.43,-28.97,-32.57,0,*68
1497463360.24,48599,19.56,73904.8,-0.43,-29.01,-32.39,0,*6F
1497463361.49,48600,19.56,73906.3,-0.43,-29.01,-32.39,0,*6C
1497463362.75,48601,19.56,73908.5,-0.43,-29.01,-32.39,0,*6D
1497463363.98,48602,19.56,73900.5,-0.43,-28.85,-32.35,0,*6F
1497463365.22,48603,19.63,73908.8,-0.43,-29.17,-32.57,0,*60
1497463366.47,48604,19.56,73910.5,-0.43,-29.17,-32.57,0,*67
1497463367.69,48605,19.56,73910.3,-0.43,-29.07,-32.57,0,*67
1497463368.94,48606,19.56,73906.0,-0.43,-29.01,-32.39,0,*6A
1497463370.16,48607,19.56,73910.0,-0.43,-29.07,-32.57,0,*65
1497463371.39,48608,19.56,73908.3,-0.43,-29.07,-32.51,0,*6C
1497463372.65,48609,19.56,73908.0,-0.43,-29.01,-32.35,0,*69
1497463373.87,48610,19.56,73906.3,-0.45,-29.07,-32.63,0,*62
1497463375.09,48611,19.56,73906.3,-0.45,-29.13,-32.57,0,*61
1497463376.31,48612,19.56,73908.0,-0.45,-29.13,-32.57,0,*62
1497463377.53,48613,19.56,73906.0,-0.45,-29.13,-32.57,0,*63
1497463378.76,48614,19.56,73908.5,-0.45,-29.01,-32.39,0,*6F
1497463379.98,48615,19.56,73908.0,-0.47,-29.07,-32.57,0,*62
1497463381.18,48616,19.56,73904.5,-0.45,-29.07,-32.57,0,*63
1497463382.43,48617,19.56,73908.8,-0.47,-29.13,-32.57,0,*65
1497463383.68,48618,19.56,73904.8,-0.47,-29.07,-32.45,0,*6C
1497463384.93,48619,19.56,73908.3,-0.47,-29.07,-32.45,0,*6D
1497463386.18,48620,19.56,73906.3,-0.45,-29.13,-32.63,0,*64
1497463387.4,48621,19.56,73904.8,-0.45,-29.13,-32.57,0,*62
1497463388.62,48622,19.56,73906.0,-0.45,-29.13,-32.57,0,*61
1497463389.84,48623,19.56,73906.0,-0.45,-29.13,-32.57,0,*60
1497463391.08,48624,19.56,73908.8,-0.47,-29.13,-32.57,0,*65
1497463392.33,48625,19.56,73900.8,-0.47,-29.01,-32.57,0,*67
1497463393.58,48626,19.56,73902.5,-0.47,-29.23,-32.75,0,*64
1497463394.81,48627,19.56,73904.3,-0.45,-29.07,-32.63,0,*66
1497463396.06,48628,19.56,73908.0,-0.47,-29.23,-32.63,0,*6D
1497463397.29,48629,19.56,73904.8,-0.45,-29.07,-32.75,0,*6F
1497463398.54,48630,19.56,73906.0,-0.45,-29.13,-32.63,0,*65
1497463399.82,48631,19.56,73900.8,-0.47,-29.13,-32.75,0,*61
1497463401.05,48632,19.56,73900.8,-0.45,-28.79,-32.39,0,*65
1497463402.33,48633,19.56,73906.5,-0.47,-29.01,-32.63,0,*67
1497463403.59,48634,19.56,73900.3,-0.47,-29.07,-32.75,0,*61
1497463404.84,48635,19.56,73906.5,-0.45,-29.13,-32.79,0,*6B
1497463406.09,48636,19.56,73902.8,-0.47,-29.07,-32.63,0,*64
1497463407.31,48637,19.56,73900.8,-0.47,-29.07,-32.57,0,*62
1497463408.56,48638,19.56,73900.8,-0.47,-29.01,-32.57,0,*6B
1497463409.83,48639,19.56,73904.3,-0.47,-29.13,-32.79,0,*65
1497463411.09,48640,19.56,73904.3,-0.47,-29.07,-32.75,0,*62
1497463412.34,48641,19.56,73906.0,-0.47,-29.07,-32.75,0,*63
1497463413.62,48642,19.56,73904.0,-0.47,-29.01,-32.63,0,*61
1497463414.87,48643,19.56,73906.3,-0.47,-29.01,-32.57,0,*67
1497463416.1,48644,19.56,73904.5,-0.47,-29.23,-32.91,0,*6A
1497463417.3,48645,19.56,73906.3,-0.45,-29.07,-32.91,0,*6F
1497463418.58,48646,19.56,73910.0,-0.47,-29.01,-32.63,0,*65
1497463419.86,48647,19.56,73904.0,-0.47,-29.01,-32.75,0,*63
1497463421.14,48648,19.56,73904.8,-0.47,-29.01,-32.75,0,*6C
1497463422.4,48649,19.56,73900.8,-0.49,-29.13,-32.85,0,*6F
1497463423.66,48650,19.56,73906.8,-0.49,-29.17,-32.79,0,*60
1497463424.91,48651,19.56,73906.8,-0.49,-29.17,-32.97,0,*61
1497463426.16,48652,19.56,73908.0,-0.49,-29.13,-32.85,0,*65
1497463427.4,48653,19.56,73904.8,-0.49,-29.07,-32.85,0,*61
1497463428.63,48654,19.56,73904.5,-0.49,-29.07,-32.85,0,*66
1497463429.88,48655,19.56,73904.3,-0.51,-29.29,-33.15,0,*6A
1497463431.16,48656,19.56,73904.0,-0.51,-29.13,-32.97,0,*6B
1497463432.39,48657,19.56,73902.3,-0.51,-28.97,-32.69,0,*66
1497463433.64,48658,19.56,73900.0,-0.51,-28.97,-32.79,0,*68
1497463434.9,48659,19.56,73902.5,-0.49,-29.13,-32.79,0,*6D
1497463436.16,48660,19.56,73904.5,-0.49,-29.13,-32.85,0,*64
1497463437.39,48661,19.56,73898.3,-0.49,-28.97,-32.85,0,*68
1497463438.64,48662,19.56,73898.8,-0.51,-28.97,-32.79,0,*61
1497463439.87,48663,19.56,73900.8,-0.49,-29.13,-33.03,0,*68
1497463441.11,48664,19.56,73902.0,-0.49,-29.07,-32.79,0,*66
1497463442.36,48665,19.56,73902.5,-0.49,-29.13,-32.85,0,*61
1497463443.62,48666,19.56,73902.3,-0.51,-29.17,-33.03,0,*60
1497463444.85,48667,19.56,73904.8,-0.49,-29.07,-32.85,0,*66
1497463446.08,48668,19.56,73904.0,-0.49,-29.07,-32.79,0,*6A
1497463447.37,48669,19.56,73904.0,-0.51,-28.91,-32.79,0,*6C
1497463448.58,48670,19.56,73902.8,-0.49,-28.97,-32.69,0,*6A
1497463449.84,48671,19.56,73904.8,-0.51,-28.91,-32.69,0,*64
1497463451.07,48672,19.56,73904.3,-0.49,-29.17,-33.03,0,*6C
1497463452.32,48673,19.56,73902.3,-0.49,-29.13,-32.79,0,*65
1497463453.58,48674,19.56,73906.8,-0.51,-29.07,-32.85,0,*6D
1497463454.81,48675,19.56,73906.5,-0.49,-28.97,-32.79,0,*6E
1497463456.04,48676,19.56,73904.0,-0.49,-29.07,-32.97,0,*65
1497463457.3,48677,19.56,73910.0,-0.51,-29.07,-32.85,0,*6E
1497463458.53,48678,19.56,73908.5,-0.49,-29.07,-32.85,0,*68
1497463459.77,48679,19.56,73904.3,-0.49,-29.07,-32.79,0,*6A
1497463461.04,48680,19.56,73908.5,-0.51,-29.17,-32.97,0,*64
1497463462.29,48681,19.56,73910.0,-0.49,-29.17,-32.97,0,*6C
1497463463.57,48682,19.56,73908.0,-0.51,-29.17,-32.97,0,*66
1497463464.82,48683,19.56,73908.3,-0.51,-29.17,-33.03,0,*6B
1497463466.07,48684,19.56,73906.8,-0.51,-29.29,-33.03,0,*61
1497463467.33,48685,19.56,73906.8,-0.51,-29.17,-33.03,0,*6D
1497463468.58,48686,19.56,73906.8,-0.51,-29.17,-33.03,0,*6E
1497463469.82,48687,19.56,73904.8,-0.49,-29.35,-33.21,0,*66
1497463471.08,48688,19.56,73908.0,-0.51,-29.35,-33.15,0,*67
1497463472.33,48689,19.56,73904.0,-0.51,-29.17,-33.03,0,*61
1497463473.58,48690,19.56,73904.0,-0.51,-29.29,-33.15,0,*63
1497463474.85,48691,19.56,73904.0,-0.51,-29.13,-32.97,0,*60
1497463476.1,48692,19.56,73904.3,-0.51,-29.29,-33.15,0,*61
1497463477.36,48693,19.56,73906.3,-0.51,-29.35,-33.21,0,*6A
1497463478.62,48694,19.56,73906.8,-0.51,-29.35,-33.15,0,*6A
1497463479.88,48695,19.56,73906.0,-0.51,-29.17,-32.91,0,*66
1497463481.11,48696,19.56,73904.8,-0.53,-29.35,-33.21,0,*6D
1497463482.37,48697,19.56,73902.0,-0.53,-29.39,-33.09,0,*6A
1497463483.62,48698,19.56,73906.5,-0.53,-29.39,-33.09,0,*65
1497463484.88,48699,19.56,73906.8,-0.53,-29.39,-33.09,0,*64
1497463486.11,48700,19.56,73906.3,-0.55,-29.23,-33.03,0,*62
1497463487.33,48701,19.56,73900.0,-0.55,-29.23,-33.03,0,*63
1497463488.56,48702,19.56,73904.0,-0.53,-29.35,-33.03,0,*61
1497463489.82,48703,19.56,73902.0,-0.53,-29.39,-33.09,0,*66
1497463491.08,48704,19.56,73900.8,-0.53,-29.35,-33.09,0,*6D
1497463492.36,48705,19.56,73900.0,-0.55,-29.51,-33.09,0,*68
1497463493.62,48706,19.56,73904.3,-0.55,-29.39,-32.91,0,*65
1497463494.88,48707,19.56,73900.5,-0.55,-29.35,-32.91,0,*68
1497463496.14,48708,19.56,73900.0,-0.53,-29.35,-33.09,0,*61
1497463497.39,48709,19.56,73902.5,-0.53,-29.35,-32.85,0,*65
1497463498.68,48710,19.56,73902.0,-0.55,-29.51,-33.09,0,*6C
1497463499.93,48711,19.56,73900.3,-0.55,-29.39,-33.03,0,*69
1497463501.16,48712,19.56,73898.0,-0.53,-29.39,-33.03,0,*6C
1497463502.42,48713,19.56,73900.5,-0.55,-29.39,-32.91,0,*61
1497463503.68,48714,19.56,73898.5,-0.55,-29.39,-32.91,0,*66
1497463504.93,48715,19.56,73900.3,-0.55,-29.39,-33.03,0,*6D
1497463506.19,48716,19.56,73904.5,-0.55,-29.39,-32.91,0,*64
1497463507.45,48717,19.56,73904.5,-0.55,-29.39,-33.03,0,*6F
1497463508.68,48718,19.56,73906.8,-0.53,-29.39,-33.03,0,*66
1497463509.93,48719,19.56,73900.8,-0.55,-29.39,-33.03,0,*61
1497463511.19,48720,19.56,73900.3,-0.55,-29.39,-32.91,0,*61
1497463512.45,48721,19.56,73902.3,-0.55,-29.39,-33.03,0,*6A
1497463513.71,48722,19.56,73902.0,-0.55,-29.39,-32.91,0,*63
1497463514.94,48723,19.56,73902.5,-0.53,-29.35,-32.91,0,*68
1497463516.22,48724,19.56,73902.5,-0.55,-29.51,-33.09,0,*6B
1497463517.45,48725,19.56,73900.8,-0.53,-29.51,-33.21,0,*66
1497463518.71,48726,19.56,73900.0,-0.55,-29.51,-33.03,0,*63
1497463519.97,48727,19.56,73900.5,-0.55,-29.57,-33.09,0,*6E
1497463521.22,48728,19.56,73896.8,-0.53,-29.51,-33.09,0,*61
1497463522.48,48729,19.56,73900.3,-0.55,-29.57,-33.09,0,*60
1497463523.73,48730,19.56,73902.5,-0.57,-29.73,-33.31,0,*67
1497463524.96,48731,19.56,73906.8,-0.57,-29.61,-33.09,0,*6E
1497463526.21,48732,19.56,73902.3,-0.57,-29.73,-33.27,0,*62
1497463527.41,48733,19.56,73900.5,-0.57,-29.61,-33.15,0,*61
1497463528.62,48734,19.56,73904.5,-0.57,-29.57,-32.91,0,*6E
1497463529.85,48735,19.56,73906.3,-0.57,-29.57,-33.09,0,*6F
1497463531.08,48736,19.56,73904.5,-0.57,-29.79,-33.27,0,*6C
1497463532.3,48737,19.56,73900.0,-0.57,-29.73,-33.15,0,*66
1497463533.52,48738,19.56,73904.8,-0.57,-29.73,-33.15,0,*69
1497463534.73,48739,19.56,73906.8,-0.57,-29.61,-32.91,0,*66
1497463535.98,48740,19.56,73904.0,-0.57,-29.73,-32.97,0,*6D
1497463537.21,48741,19.56,73904.5,-0.57,-29.45,-32.79,0,*69
1497463538.43,48742,19.56,73900.5,-0.57,-29.73,-33.15,0,*64
1497463539.68,48743,19.56,73904.0,-0.57,-29.73,-33.09,0,*68
1497463540.91,48744,19.56,73904.3,-0.57,-29.61,-33.09,0,*6C
1497463542.12,48745,19.56,73904.0,-0.57,-29.57,-32.91,0,*68
1497463543.32,48746,19.56,73904.8,-0.57,-29.45,-32.91,0,*68
1497463544.59,48747,19.56,73906.8,-0.59,-29.57,-32.79,0,*62
1497463545.85,48748,19.56,73904.5,-0.57,-29.39,-32.79,0,*6B
1497463547.07,48749,19.56,73906.5,-0.57,-29.57,-32.97,0,*62
1497463548.28,48750,19.56,73904.5,-0.57,-29.45,-32.91,0,*6F
1497463549.49,48751,19.56,73904.3,-0.57,-29.45,-32.91,0,*6E
1497463550.69,48752,19.56,73906.5,-0.57,-29.57,-32.91,0,*6E
1497463551.92,48753,19.56,73906.3,-0.57,-29.57,-32.97,0,*69
1497463553.15,48754,19.56,73900.3,-0.57,-29.61,-32.97,0,*6B
1497463554.35,48755,19.56,73902.5,-0.57,-29.57,-32.91,0,*69
1497463555.58,48756,19.56,73904.5,-0.59,-29.79,-33.15,0,*65
1497463556.81,48757,19.56,73902.5,-0.57,-29.61,-32.79,0,*68
1497463558.04,48758,19.56,73900.0,-0.57,-29.61,-32.97,0,*67
1497463559.27,48759,19.56,73902.3,-0.59,-29.61,-32.91,0,*6E
1497463560.48,48760,19.56,73902.8,-0.57,-29.61,-32.91,0,*6A
1497463561.7,48761,19.56,73902.3,-0.57,-29.61,-33.09,0,*6B
1497463562.95,48762,19.56,73900.8,-0.57,-29.73,-32.97,0,*6D
1497463564.15,48763,19.56,73900.5,-0.57,-29.61,-32.91,0,*69
1497463565.38,48764,19.56,73902.0,-0.57,-29.61,-32.97,0,*68
1497463566.6,48765,19.56,73902.5,-0.57,-29.73,-33.15,0,*61
1497463567.83,48766,19.56,73904.3,-0.57,-29.57,-32.97,0,*6F
1497463569.08,48767,19.56,73902.5,-0.57,-29.29,-32.75,0,*6B
1497463570.35,48768,19.56,73896.3,-0.59,-29.57,-32.79,0,*6F
1497463571.6,48769,19.56,73902.0,-0.59,-29.61,-32.97,0,*6B
1497463572.83,48770,19.56,73902.5,-0.57,-29.61,-33.09,0,*6B
1497463574.06,48771,19.56,73900.5,-0.55,-29.67,-32.91,0,*6E
1497463575.31,48772,19.56,73906.3,-0.59,-29.73,-33.15,0,*69
1497463576.54,48773,19.56,73906.8,-0.59,-29.61,-33.15,0,*6B
1497463577.77,48774,19.56,73908.5,-0.59,-29.61,-32.91,0,*61
1497463579.03,48775,19.56,73906.5,-0.59,-29.61,-33.09,0,*60
1497463580.26,48776,19.56,73904.5,-0.57,-29.61,-33.09,0,*6D
1497463581.52,48777,19.56,73904.3,-0.59,-29.57,-32.97,0,*61
1497463582.78,48778,19.56,73902.8,-0.59,-29.57,-33.09,0,*68
1497463583.99,48779,19.56,73906.5,-0.57,-29.45,-32.91,0,*64
1497463585.24,48780,19.56,73904.8,-0.59,-29.57,-32.97,0,*69
1497463586.5,48781,19.56,73906.0,-0.59,-29.61,-33.09,0,*6B
1497463587.73,48782,19.56,73908.0,-0.59,-29.61,-33.15,0,*65
1497463588.99,48783,19.56,73904.0,-0.59,-29.61,-32.97,0,*6F
1497463590.22,48784,19.56,73908.5,-0.59,-29.45,-32.91,0,*68
1497463591.45,48785,19.56,73906.0,-0.57,-29.57,-32.97,0,*62
1497463592.73,48786,19.56,73908.5,-0.59,-29.73,-33.09,0,*6F
1497463593.98,48787,19.56,73906.8,-0.57,-29.29,-32.63,0,*62
1497463595.27,48788,19.56,73906.5,-0.59,-29.39,-32.75,0,*65
1497463596.5,48789,19.56,73908.5,-0.57,-29.57,-32.97,0,*6E
1497463597.79,48790,19.56,73904.5,-0.59,-29.39,-32.79,0,*60
1497463599.02,48791,19.56,73902.0,-0.59,-29.45,-32.91,0,*6C
1497463600.26,48792,19.56,73902.0,-0.59,-29.45,-32.91,0,*6F
1497463601.55,48793,19.56,73904.5,-0.59,-29.39,-32.79,0,*63
1497463602.81,48794,19.56,73904.3,-0.59,-29.57,-32.97,0,*6C
1497463604.06,48795,19.56,73906.8,-0.59,-29.61,-33.09,0,*6E
1497463605.32,48796,19.56,73902.5,-0.59,-29.57,-33.09,0,*68
1497463606.55,48797,19.56,73906.3,-0.57,-29.45,-32.97,0,*62
1497463607.81,48798,19.56,73900.8,-0.59,-29.61,-33.09,0,*63
1497463609.06,48799,19.56,73904.3,-0.57,-29.73,-33.09,0,*6F
1497463610.29,48800,19.56,73906.8,-0.57,-29.61,-33.09,0,*63
1497463611.54,48801,19.56,73904.0,-0.59,-29.61,-33.09,0,*6C
1497463612.8,48802,19.56,73902.5,-0.59,-29.61,-32.97,0,*69
1497463614.03,48803,19.56,73904.5,-0.59,-29.45,-32.91,0,*68
1497463615.29,48804,19.56,73900.3,-0.59,-29.57,-32.97,0,*6A
1497463616.54,48805,19.56,73902.0,-0.57,-29.73,-33.09,0,*65
1497463617.74,48806,19.56,73904.3,-0.61,-29.61,-33.03,0,*6A
1497463619.0,48807,19.56,73902.8,-0.59,-29.57,-32.97,0,*69
1497463620.23,48808,19.56,73906.8,-0.59,-29.61,-32.91,0,*65
1497463621.47,48809,19.56,73906.3,-0.59,-29.45,-32.91,0,*62
1497463622.73,48810,19.56,73906.8,-0.59,-29.57,-32.97,0,*6F
1497463624.01,48811,19.56,73904.0,-0.59,-29.73,-33.09,0,*6E
1497463625.24,48812,19.56,73904.0,-0.59,-29.61,-32.91,0,*6E
1497463626.5,48813,19.56,73904.5,-0.59,-29.57,-32.97,0,*6C
1497463627.73,48814,19.56,73904.5,-0.59,-29.57,-32.91,0,*6D
1497463628.99,48815,19.56,73904.0,-0.59,-29.45,-32.97,0,*69
1497463630.23,48816,19.56,73906.8,-0.59,-29.57,-32.91,0,*6F
1497463631.48,48817,19.56,73904.0,-0.59,-29.61,-33.09,0,*6B
1497463632.78,48818,19.56,73904.5,-0.59,-29.39,-32.75,0,*63
1497463634.04,48819,19.56,73906.8,-0.59,-29.57,-32.75,0,*6A
1497463635.25,48820,19.56,73904.0,-0.61,-29.45,-32.69,0,*65
1497463636.51,48821,19.56,73906.3,-0.61,-29.35,-32.79,0,*62
1497463637.81,48822,19.56,73906.0,-0.59,-29.39,-32.75,0,*6A
1497463639.07,48823,19.56,73904.5,-0.59,-29.57,-32.75,0,*63
1497463640.31,48824,19.56,73908.8,-0.59,-29.45,-32.91,0,*6D
1497463641.56,48825,19.56,73906.3,-0.59,-29.45,-32.97,0,*6A
1497463642.85,48826,19.56,73904.5,-0.59,-29.39,-32.79,0,*62
1497463644.12,48827,19.56,73906.3,-0.61,-29.39,-32.75,0,*64
1497463645.41,48828,19.56,73904.8,-0.59,-29.39,-32.79,0,*6C
1497463646.7,48829,19.56,73904.0,-0.59,-29.39,-32.79,0,*6D
1497463647.98,48830,19.56,73906.8,-0.59,-29.29,-32.75,0,*68
1497463649.24,48831,19.56,73906.0,-0.59,-29.39,-32.91,0,*62
1497463650.51,48832,19.56,73910.3,-0.59,-29.23,-32.75,0,*60
1497463651.74,48833,19.56,73908.3,-0.61,-29.35,-32.69,0,*60
1497463653.0,48834,19.56,73906.5,-0.61,-29.35,-32.79,0,*66
1497463654.23,48835,19.56,73908.0,-0.61,-29.45,-32.97,0,*60
1497463655.49,48836,19.56,73906.3,-0.61,-29.35,-32.79,0,*64
1497463656.75,48837,19.56,73904.3,-0.59,-29.29,-32.91,0,*65
1497463658.01,48838,19.56,73910.3,-0.59,-29.23,-32.75,0,*6A
1497463659.29,48839,19.56,73906.8,-0.59,-29.17,-32.75,0,*6C
1497463660.55,48840,19.56,73904.3,-0.59,-29.07,-32.63,0,*64
1497463661.8,48841,19.56,73906.0,-0.61,-29.29,-32.85,0,*6A
1497463663.06,48842,19.56,73910.8,-0.59,-29.29,-32.91,0,*67
1497463664.29,48843,19.56,73904.8,-0.61,-29.23,-32.79,0,*61
1497463665.52,48844,19.56,73906.3,-0.61,-29.23,-32.79,0,*66
1497463666.74,48845,19.56,73910.5,-0.61,-29.23,-32.97,0,*67
1497463668.0,48846,19.56,73908.3,-0.63,-29.23,-32.85,0,*65
1497463669.25,48847,19.56,73904.0,-0.61,-29.13,-32.79,0,*66
1497463670.48,48848,19.56,73906.3,-0.61,-29.07,-32.85,0,*6F
1497463671.71,48849,19.56,73910.5,-0.61,-28.97,-32.79,0,*65
1497463672.93,48850,19.56,73908.0,-0.61,-29.07,-32.97,0,*65
1497463674.19,48851,19.56,73910.0,-0.61,-28.91,-32.79,0,*6A
1497463675.41,48852,19.56,73902.8,-0.61,-28.97,-32.97,0,*6F
1497463676.67,48853,19.56,73904.3,-0.61,-28.91,-32.85,0,*6B
1497463677.95,48854,19.56,73904.0,-0.63,-28.79,-32.85,0,*68
1497463679.21,48855,19.56,73904.5,-0.61,-28.79,-32.79,0,*68
1497463680.46,48856,19.56,73902.0,-0.61,-28.63,-32.63,0,*6B
1497463681.7,48857,19.56,73904.3,-0.61,-28.79,-32.97,0,*6A
1497463682.98,48858,19.56,73908.3,-0.63,-28.75,-32.85,0,*68
1497463684.24,48859,19.56,73910.8,-0.61,-28.63,-32.85,0,*6C
1497463685.47,48860,19.56,73906.3,-0.61,-28.59,-32.69,0,*6D
1497463686.7,48861,19.56,73906.5,-0.61,-28.43,-32.69,0,*67
1497463687.95,48862,19.56,73914.0,-0.61,-28.63,-32.79,0,*67
1497463689.2,48863,19.56,73910.0,-0.61,-28.63,-32.97,0,*66
1497463690.48,48864,19.56,73906.0,-0.63,-28.59,-32.85,0,*69
1497463691.73,48865,19.56,73908.8,-0.61,-28.59,-32.79,0,*69
1497463693.01,48866,19.56,73906.5,-0.63,-28.43,-32.79,0,*63
1497463694.24,48867,19.56,73906.0,-0.63,-28.31,-32.69,0,*66
1497463695.47,48868,19.56,73906.3,-0.63,-28.31,-32.69,0,*69
1497463696.72,48869,19.56,73908.5,-0.63,-28.31,-32.79,0,*69
1497463698.01,48870,19.56,73908.5,-0.63,-28.25,-32.79,0,*64